| time (UTC) | temp F | wind direction | speed MPH | gust MPH | rain 1hr in | rain 24hr in | rain mn in | humidity % | barometer mb |
| 20260510023010 | 44 | 66 | 0.0 | 2.0 | 0.00 | 0.45 | 0.45 | 96 | 1011.2 |
| 20260510021509 | 44 | 71 | 0.0 | 2.0 | 0.00 | 0.45 | 0.45 | 96 | 1011.1 |
| 20260510020008 | 44 | 89 | 0.0 | 2.0 | 0.00 | 0.45 | 0.45 | 96 | 1011.2 |
| 20260510014509 | 44 | 57 | 0.0 | 3.0 | 0.00 | 0.45 | 0.45 | 96 | 1011.1 |
| 20260510013010 | 44 | 64 | 0.0 | 2.0 | 0.00 | 0.45 | 0.45 | 96 | 1011.1 |
| 20260510011511 | 44 | 64 | 1.0 | 3.0 | 0.00 | 0.45 | 0.45 | 95 | 1011.1 |
| 20260510010010 | 44 | 82 | 0.0 | 3.0 | 0.00 | 0.45 | 0.45 | 95 | 1011.2 |
| 20260510004510 | 44 | 9 | 0.0 | 2.0 | 0.00 | 0.45 | 0.45 | 95 | 1011.0 |
| 20260510003038 | 44 | 72 | 0.0 | 2.0 | 0.00 | 0.45 | 0.45 | 95 | 1010.9 |
| 20260510001515 | 44 | 105 | 0.0 | 2.0 | 0.00 | 0.45 | 0.45 | 95 | 1010.8 |
| 20260510000015 | 44 | 114 | 0.0 | 4.0 | 0.00 | 0.45 | 0.45 | 94 | 1010.4 |
| 20260509234525 | 44 | 59 | 1.0 | 3.0 | 0.00 | 0.45 | 0.45 | 94 | 1010.3 |
| 20260509233017 | 44 | 125 | 1.0 | 3.0 | 0.00 | 0.45 | 0.45 | 94 | 1010.3 |
| 20260509231528 | 44 | 48 | 1.0 | 4.0 | 0.00 | 0.45 | 0.45 | 94 | 1010.3 |
| 20260509230021 | 44 | 84 | 0.0 | 2.0 | 0.00 | 0.45 | 0.45 | 94 | 1010.3 |
| 20260509224518 | 44 | 51 | 1.0 | 4.0 | 0.00 | 0.45 | 0.45 | 94 | 1010.4 |
| 20260509223016 | 44 | 128 | 0.0 | 2.0 | 0.01 | 0.45 | 0.45 | 94 | 1010.4 |
| 20260509221513 | 44 | 74 | 1.0 | 3.0 | 0.02 | 0.45 | 0.45 | 94 | 1010.5 |
| 20260509220015 | 44 | 94 | 0.0 | 2.0 | 0.02 | 0.45 | 0.45 | 94 | 1010.5 |
| 20260509214518 | 44 | 52 | 0.0 | 3.0 | 0.03 | 0.45 | 0.45 | 94 | 1010.7 |
| 20260509213019 | 45 | 37 | 1.0 | 2.0 | 0.03 | 0.44 | 0.44 | 94 | 1010.8 |
| 20260509211516 | 45 | 51 | 0.0 | 2.0 | 0.04 | 0.43 | 0.43 | 94 | 1010.7 |
| 20260509210022 | 45 | 58 | 0.0 | 2.0 | 0.06 | 0.43 | 0.43 | 94 | 1010.7 |
| 20260509204521 | 45 | 57 | 0.0 | 2.0 | 0.06 | 0.42 | 0.42 | 94 | 1010.8 |
| 20260509203023 | 45 | 51 | 0.0 | 2.0 | 0.08 | 0.41 | 0.41 | 94 | 1010.8 |
| 20260509201521 | 44 | 50 | 0.0 | 2.0 | 0.08 | 0.39 | 0.39 | 94 | 1011.0 |
| 20260509200023 | 45 | 55 | 0.0 | 2.0 | 0.08 | 0.37 | 0.37 | 93 | 1011.2 |
| 20260509194523 | 45 | 98 | 1.0 | 4.0 | 0.08 | 0.36 | 0.36 | 94 | 1011.1 |
| 20260509193022 | 45 | 116 | 0.0 | 2.0 | 0.06 | 0.33 | 0.33 | 93 | 1011.4 |
| 20260509191522 | 45 | 57 | 0.0 | 5.0 | 0.06 | 0.31 | 0.31 | 93 | 1011.4 |
| 20260509190022 | 45 | 65 | 0.0 | 5.0 | 0.06 | 0.29 | 0.29 | 93 | 1011.6 |
| 20260509184526 | 45 | 46 | 1.0 | 3.0 | 0.08 | 0.28 | 0.28 | 93 | 1011.7 |
| 20260509183026 | 45 | 57 | 0.0 | 2.0 | 0.10 | 0.27 | 0.27 | 93 | 1011.8 |
| 20260509181539 | 45 | 59 | 2.0 | 4.0 | 0.09 | 0.25 | 0.25 | 92 | 1011.8 |
| 20260509180022 | 46 | 109 | 0.0 | 3.0 | 0.09 | 0.23 | 0.23 | 92 | 1011.9 |
| 20260509174526 | 46 | 89 | 0.0 | 2.0 | 0.07 | 0.20 | 0.20 | 92 | 1012.0 |
| 20260509173025 | 46 | 56 | 0.0 | 2.0 | 0.06 | 0.17 | 0.17 | 93 | 1012.1 |
| 20260509171525 | 46 | 70 | 0.0 | 3.0 | 0.06 | 0.16 | 0.16 | 93 | 1012.3 |
| 20260509170026 | 46 | 59 | 0.0 | 2.0 | 0.07 | 0.14 | 0.14 | 93 | 1012.3 |
| 20260509164523 | 45 | 41 | 0.0 | 2.0 | 0.08 | 0.13 | 0.13 | 92 | 1012.5 |
| 20260509163031 | 45 | 70 | 0.0 | 2.0 | 0.07 | 0.11 | 0.11 | 91 | 1012.7 |
| 20260509161522 | 46 | 57 | 0.0 | 2.0 | 0.07 | 0.10 | 0.10 | 91 | 1012.7 |
| 20260509160023 | 46 | 59 | 0.0 | 2.0 | 0.06 | 0.07 | 0.07 | 91 | 1013.0 |
| 20260509154526 | 46 | 141 | 0.0 | 2.0 | 0.04 | 0.05 | 0.05 | 90 | 1013.1 |
| 20260509153026 | 46 | 95 | 0.0 | 1.0 | 0.04 | 0.04 | 0.04 | 89 | 1013.2 |
| 20260509151519 | 47 | 108 | 0.0 | 0.0 | 0.03 | 0.03 | 0.03 | 87 | 1013.3 |
| 20260509150012 | 47 | 108 | 0.0 | 1.0 | 0.01 | 0.01 | 0.01 | 88 | 1013.1 |
| 20260509144517 | 47 | 108 | 0.0 | 2.0 | 0.01 | 0.01 | 0.01 | 84 | 1013.2 |
| 20260509143011 | 47 | 209 | 0.0 | 2.0 | 0.00 | 0.00 | 0.00 | 84 | 1013.0 |
| 20260509141514 | 48 | 96 | 0.0 | 2.0 | 0.00 | 0.00 | 0.00 | 77 | 1013.1 |
| 20260509140019 | 48 | 267 | 0.0 | 8.0 | 0.00 | 0.00 | 0.00 | 73 | 1012.9 |
| 20260509134507 | 49 | 223 | 1.0 | 2.0 | 0.00 | 0.00 | 0.00 | 65 | 1012.9 |
| 20260509133011 | 49 | 259 | 0.0 | 2.0 | 0.00 | 0.00 | 0.00 | 61 | 1012.7 |
| 20260509131514 | 48 | 131 | 0.0 | 2.0 | 0.00 | 0.00 | 0.00 | 64 | 1012.7 |
| 20260509130019 | 47 | 24 | 0.0 | 2.0 | 0.00 | 0.00 | 0.00 | 65 | 1012.6 |
| 20260509124506 | 46 | 78 | 0.0 | 2.0 | 0.00 | 0.00 | 0.00 | 69 | 1013.1 |
| 20260509123008 | 44 | 132 | 0.0 | 2.0 | 0.00 | 0.00 | 0.00 | 73 | 1013.3 |
| 20260509121514 | 43 | 129 | 0.0 | 2.0 | 0.00 | 0.00 | 0.00 | 79 | 1013.5 |
| 20260509120017 | 41 | 38 | 0.0 | 2.0 | 0.00 | 0.00 | 0.00 | 77 | 1013.4 |
| 20260509114520 | 38 | 38 | 0.0 | 2.0 | 0.00 | 0.00 | 0.00 | 84 | 1013.4 |
| 20260509113005 | 35 | 24 | 1.0 | 2.0 | 0.00 | 0.00 | 0.00 | 95 | 1013.6 |
| 20260509111510 | 33 | 79 | 0.0 | 2.0 | 0.00 | 0.00 | 0.00 | 96 | 1013.6 |
| 20260509110016 | 32 | 19 | 0.0 | 2.0 | 0.00 | 0.00 | 0.00 | 96 | 1013.6 |
| 20260509104533 | 31 | 19 | 0.0 | 1.0 | 0.00 | 0.00 | 0.00 | 96 | 1013.5 |
| 20260509103023 | 30 | 17 | 0.0 | 2.0 | 0.00 | 0.00 | 0.00 | 96 | 1013.5 |
| 20260509101532 | 0 | 0.0 | 0.0 | 0.00 | 0.00 | 0.00 | 1013.6 | ||
| 20260509100024 | 0 | 0.0 | 0.0 | 0.00 | 0.00 | 0.00 | 1013.5 | ||
| 20260509094523 | 0 | 0.0 | 0.0 | 0.00 | 0.00 | 0.00 | 1013.2 | ||
| 20260509093038 | 0 | 0.0 | 0.0 | 0.00 | 0.00 | 0.00 | 1013.1 | ||
| 20260509091526 | 0 | 0.0 | 0.0 | 0.00 | 0.00 | 0.00 | 1012.9 | ||
| 20260509090029 | 0 | 0.0 | 0.0 | 0.00 | 0.00 | 0.00 | 1012.5 | ||
| 20260509084538 | 0 | 0.0 | 0.0 | 0.00 | 0.00 | 0.00 | 1012.7 | ||
| 20260509083029 | 0 | 0.0 | 0.0 | 0.00 | 0.00 | 0.00 | 1012.6 | ||
| 20260509081536 | 0 | 0.0 | 0.0 | 0.00 | 0.00 | 0.00 | 1012.4 | ||
| 20260509080040 | 28 | 30 | 0.0 | 0.0 | 0.00 | 0.00 | 0.00 | 92 | 1012.5 |
| 20260509074510 | 29 | 30 | 0.0 | 1.0 | 0.00 | 0.00 | 0.00 | 92 | 1012.5 |
| 20260509073017 | 29 | 33 | 0.0 | 2.0 | 0.00 | 0.00 | 0.00 | 95 | 1012.4 |
| 20260509071520 | 28 | 325 | 0.0 | 0.0 | 0.00 | 0.00 | 0.00 | 92 | 1012.7 |
| 20260509070024 | 28 | 325 | 0.0 | 0.0 | 0.00 | 0.00 | 0.00 | 91 | 1012.7 |
| 20260509064528 | 29 | 325 | 0.0 | 0.0 | 0.00 | 0.00 | 0.00 | 91 | 1012.9 |
| 20260509063014 | 29 | 325 | 0.0 | 0.0 | 0.00 | 0.00 | 0.00 | 91 | 1012.9 |
| 20260509061517 | 30 | 325 | 0.0 | 0.0 | 0.00 | 0.00 | 0.00 | 91 | 1013.0 |
| 20260509060022 | 30 | 325 | 0.0 | 0.0 | 0.00 | 0.00 | 0.00 | 91 | 1013.0 |
| 20260509054529 | 30 | 325 | 0.0 | 0.0 | 0.00 | 0.00 | 0.00 | 90 | 1013.0 |
| 20260509053035 | 31 | 325 | 0.0 | 0.0 | 0.00 | 0.00 | 0.00 | 90 | 1012.8 |
| 20260509051523 | 31 | 325 | 0.0 | 0.0 | 0.00 | 0.00 | 0.00 | 90 | 1012.7 |
| 20260509050019 | 31 | 325 | 0.0 | 0.0 | 0.00 | 0.00 | 0.00 | 89 | 1012.5 |
| 20260509044522 | 32 | 325 | 0.0 | 0.0 | 0.00 | 0.00 | 0.00 | 88 | 1012.4 |
| 20260509043026 | 32 | 325 | 0.0 | 0.0 | 0.00 | 0.00 | 0.00 | 88 | 1012.4 |
| 20260509041528 | 33 | 325 | 0.0 | 0.0 | 0.00 | 0.00 | 0.00 | 87 | 1012.3 |
| 20260509040015 | 33 | 325 | 0.0 | 0.0 | 0.00 | 0.00 | 0.00 | 86 | 1012.4 |
| 20260509034525 | 34 | 325 | 0.0 | 0.0 | 0.00 | 0.00 | 0.00 | 85 | 1012.3 |
| 20260509033025 | 35 | 325 | 0.0 | 0.0 | 0.00 | 0.00 | 0.00 | 85 | 1012.2 |
| 20260509031532 | 35 | 325 | 0.0 | 2.0 | 0.00 | 0.00 | 0.00 | 84 | 1012.0 |
| 20260509030028 | 36 | 305 | 0.0 | 2.0 | 0.00 | 0.00 | 0.00 | 83 | 1012.0 |
| 20260509024517 | 37 | 313 | 0.0 | 2.0 | 0.00 | 0.00 | 0.00 | 81 | 1011.8 |